Regional Weather Roundup
Issued by NWS

Home | Current Version | Previous Version | Text Only | Print | Product List | Glossary Off
Versions: 1 2 3 4 5 6 7 8 9 10 11 12 13 14 15 16 17 18 19 20 21 22 23 24 25 26 27 28 29 30 31 32 33 34 35 36 37 38 39 40 41 42 43 44 45 46 47 48 49 50

000
ASUS43 KLOT 221112
RWRIL

ILLINOIS REGIONAL WEATHER ROUNDUP
NATIONAL WEATHER SERVICE CHICAGO/ROMEOVILLE IL
500 AM CST WED FEB 22 2017

NOTE: "FAIR" INDICATES FEW OR NO CLOUDS BELOW 12,000 FEET WITH NO
SIGNIFICANT WEATHER AND/OR OBSTRUCTIONS TO VISIBILITY.

* THESE STATIONS ARE NOT UNDER NWS QUALITY CONTROL. THEY ALSO MAY NOT
  REPORT WEATHER SUCH AS PRECIPITATION OR FOG.

ILZ001-002-007-009-015-016-024-221200-
NORTHWEST ILLINOIS

CITY           SKY/WX    TMP DP  RH WIND       PRES   REMARKS
MOLINE         PTCLDY    54  51  90 SW6       29.78F FOG
STERLING*      LGT RAIN  49  49 100 S5        29.81F VSB 1/2
SAVANNA*       DRZL/FOG  49  49  99 S7        29.77F VSB 1/4
$$

ILZ003-004-008-010-011-017-018-221200-
NORTH CENTRAL ILLINOIS

CITY           SKY/WX    TMP DP  RH WIND       PRES   REMARKS
ROCKFORD       FOG       52  51  97 S9        29.81S VSB 1/8
FREEPORT*      PTCLDY    51  51  99 SW16      29.79F FOG
ROCHELLE*      DRZL/FOG  49  49 100 S10       29.81F VSB 1/4
DE KALB*       DRZL/FOG  50  49  99 S12       29.82F VSB 1/4
PERU*          FOG       54  53  98 SW12      29.84S VSB 1/2
$$

ILZ005-006-012>014-019>023-221200-
NORTHEAST ILLINOIS

CITY           SKY/WX    TMP DP  RH WIND       PRES   REMARKS
CHICAGO-OHARE  FOG       56  54  93 SW10      29.82R VSB 3/4
CHICAGO-MIDWAY CLOUDY    56  53  90 S8        29.83R FOG
AURORA         FOG       53  52  96 SW10      29.83S VSB 1/4
LANSING*       CLOUDY    52  52 100 S7        29.86R FOG
JOLIET*        FOG       53  53 100 SW3       29.86R VSB<1/4
WAUKEGAN       FOG       51  51 100 SW10      29.79S VSB 1/4
DUPAGE AIRPORT FOG       53  51  93 S12       29.81F VSB 1/4
KANKAKEE*      CLEAR     47  46  98 CALM      29.87R FOG
WHEELING       CLOUDY    53  53 100 SW8       29.82S FOG
MORRIS*        FOG       49  49  99 CALM      29.84S VSB 1/4
ROMEOVILLE*    DRZL/FOG  52  52 100 SW6       29.85R VSB 1/4
NORTHERLY ISL    N/A     56  52  86 SW6         N/A
$$

LMZ740>746-221200-
SOUTHERN LAKE MICHIGAN

STATION/POSITION SKY/WX   TEMP    WIND        PRES    VSBY  WAVE
                          AIR SEA DIR/SP/G                  HT/PER
                          (F)     (DEG/KT/KT) (MB)    (MI)  (FT/S)
HARRISON CRIB              56     200/ 11/ 12   N/A
BURNHAM HARBOR             56     200/  7/  8   N/A
CALUMET HARBOR             54     190/  6/  8 1009.9R
BURNS HARBOR               54     190/ 11/ 15 1011.2
MICHIGAN CITY              53     160/  7/ 10   N/A
$$

ILZ025>027-034>036-040-047-049-050-058-095>099-221200-
WEST-CENTRAL ILLINOIS

CITY           SKY/WX    TMP DP  RH WIND       PRES   REMARKS
QUINCY         FOG       53  53 100 S8        29.83F VSB 1/4
GALESBURG*     DRZL/FOG  50  50 100 S7        29.83S VSB 1/4
MACOMB*        FOG       52  52 100 S6        29.86S VSB 1/2
JACKSONVILLE*  FOG       51  51 100 SW6       29.87R VSB 1/4
PITTSFIELD*    FOG       55  55 100 S6        29.87S VSB 1/4
$$

ILZ028>032-037-038-041>044-048-051>054-059>061-221200-
CENTRAL ILLINOIS

CITY           SKY/WX    TMP DP  RH WIND       PRES   REMARKS
PONTIAC        FOG       46  46  98 CALM      29.87S VSB 1/2
BLOOMINGTON    FOG       46  46 100 SW7       29.87S VSB 1/4
DECATUR        FOG       42  42 100 CALM      29.87S VSB 1/4
PEORIA         FOG       54  54 100 SW8       29.85S VSB 1/4
LACON*         CLOUDY    55  55 100 SW6       29.83F FOG
LINCOLN*       FOG       46  46 100 CALM      29.87R VSB<1/4
SPRINGFIELD    FOG       49  48  97 SW3       29.87R VSB 1/4
TAYLORVILLE    FOG       45  45 100 S3        29.87S VSB 1/4
$$

ILZ033-039-045-046-055>057-062-063-221200-
EAST-CENTRAL ILLINOIS

CITY           SKY/WX    TMP DP  RH WIND       PRES   REMARKS
CHAMPAIGN      FOG       47  45  93 S8        29.88S VSB<1/4
RANTOUL*       FOG       46  46 100 CALM      29.88S VSB 1/4
MATTOON        FOG       49  49 100 S5        29.87S VSB 1/4
PARIS*         FOG       45  45 100 S3        29.89S VSB<1/4
$$

ILZ079-100>102-221200-
SOUTHWEST ILLINOIS

CITY           SKY/WX    TMP DP  RH WIND       PRES   REMARKS
ALTON          FOG       42  42 100 CALM      29.88R VSB 1/4
BELLEVILLE     FOG       45  45 100 CALM      29.86S VSB 1/4
CAHOKIA*       FOG       44  41  89 CALM      29.87S VSB 1/4
SPARTA*        PTCLDY    54  53  96 CALM      29.89S
$$

ILZ064>066-069>071-074>076-080>082-084>086-088>090-092>094-221200-
SOUTH-CENTRAL ILLINOIS

CITY           SKY/WX    TMP DP  RH WIND       PRES   REMARKS
CARBONDALE     CLOUDY    51  51 100 CALM      29.88S FOG
CAIRO*         CLOUDY    56  56  99 CALM      29.90F
EFFINGHAM*     FOG       47  47 100 CALM      29.90R VSB 1/4
MARION         CLOUDY    54  54 100 CALM      29.89F FOG
MT. VERNON     MOCLDY    45  45 100 CALM      29.89S FOG
CENTRALIA*       N/A     52  52 100 CALM      29.88S FOG
SALEM*         CLOUDY    53  52  95 CALM      29.88S FOG
METROPOLIS*    CLOUDY    57  56  98 CALM      29.91S FOG
$$

ILZ067-068-072-073-078-083-087-091-221200-
SOUTHEAST ILLINOIS

CITY           SKY/WX    TMP DP  RH WIND       PRES   REMARKS
LAWRENCEVILLE  FOG       50  50 100 S6        29.89S VSB 1/4
FLORA*         FOG       48  48  99 CALM      29.89S VSB 1/4
FAIRFIELD*     FOG       49  49 100 CALM      29.88F VSB 1/2
HARRISBURG*    FOG       51  51 100 SE6       29.90F VSB 1
ROBINSON*      FOG       47  47 100 CALM      29.90R VSB 1/4
CARMI*         CLOUDY    49  49 100 CALM      29.89F FOG
$$

ABBREVIATIONS USED IN REMARKS
   TC - TEMPERATURE IN CELSIUS
  WCI - WIND CHILL INDEX
   HX - HEAT INDEX
  VSB - VISIBILITY
$$





USA.gov is the U.S. government's official web portal to all federal, state and local government web resources and services.